Location: Newark
(59.8814°N, 10.8258°E)
Time: 02:38:26
(UTC+00:00)

Envisat - Pass Details

Date: 26 January 2020
Orbit: 764 x 766 km, 98.1° (Epoch: 25 February)

Event Time Altitude Azimuth Distance (km) Brightness Sun altitude
Rises 18:35:18 0° 217° (SW) 3,230 6.7 -24.4°
Reaches altitude 10° 18:38:28 10° 238° (WSW) 2,308 6.2 -24.8°
Maximum altitude 18:41:38 16° 277° (W) 1,902 5.9 -25.2°
Drops below altitude 10° 18:44:50 10° 316° (NW) 2,318 6.1 -25.6°
Sets 18:48:03 0° 338° (NNW) 3,250 6.6 -26.0°
